SCP
-0 -0 -0 -0 -0 -0 -0 -0 -0 -0 -0 -0 -0 -0 -0 -0 0 0 0 0 0 0 0 0 0 0 0 0 0 0 0 0 0 0 0 0 0 0 0 0 0 0 0
-0 -0 -0 -0 -0 -0 -0 -0 -0 -0 -0 -0 -0 -0 -0 -0 -0 -0 0 0 0 0 0 0 0 0 0 0 0 0 0 0 0 0 0 0 0 0 0 0 0 0 0
0 0 -0 -0 -0 -0 -0 -0 -0 -0 -0 -0 -0 -0 -0 -0 -0 -0 0 0 0 0 0 0 0 0 0 0 0 0 0 0 0 0 0 0 0 0 0 0 0 0 0
0 0 0 0 0 -0 -0 -0 -0 -1 -1 -1 -1 -1 -1 -0 0 0 0 0 0 0 0 0 0 0 0 0 0 0 0 0 0 0 0 0 0 0 0 0 0 0 0
1 1 1 1 0 0 -0 0 -0 -0 -1 -0 -0 -0 -0 0 0 1 1 1 1 1 1 1 0 0 0 0 0 0 0 0 0 0 0 0 0 0 0 0 0 0 0
2 2 3 2 1 1 0 0 1 1 0 0 0 0 1 0 0 1 1 2 2 2 2 2 1 0 0 0 0 0 0 0 0 0 0 0 0 0 0 0 0 0 0
1 0 1 2 0 1 1 1 1 1 2 2 2 2 2 1 1 1 1 2 2 3 3 4 2 0 0 0 0 0 0 0 0 0 0 0 0 0 0 0 0 0 0
1 0 1 0 -1 0 1 1 1 1 2 3 3 3 4 4 4 1 1 3 4 3 6 3 1 0 0 0 0 0 0 0 0 0 0 0 0 0 0 0 0 0 0
-0 0 0 1 1 1 1 2 2 2 2 2 3 4 4 5 5 2 1 5 7 3 1 0 0 0 0 0 0 0 0 0 0 0 0 0 0 0 0 0 0 0 0
0 1 1 2 1 1 1 1 3 3 3 2 2 3 5 6 4 0 1 7 3 1 1 0 0 0 0 0 0 0 0 0 0 0 0 0 0 0 0 0 0 0 0
1 1 1 1 1 1 1 2 2 4 5 5 5 5 4 4 3 0 0 4 1 1 0 0 0 0 0 0 0 0 0 0 0 0 0 0 0 0 0 0 0 0 0
2 2 2 2 1 1 2 2 3 3 3 5 4 3 3 3 2 0 0 1 1 1 0 0 0 0 0 0 0 0 0 0 0 0 0 0 0 0 0 0 0 0 0
1 1 1 2 1 1 1 1 1 1 1 2 2 2 2 2 2 0 0 0 0 1 0 0 0 0 0 0 0 0 0 0 0 0 0 0 0 0 0 0 0 0 0
1 1 1 1 1 1 0 0 0 0 1 2 2 2 1 1 1 0 0 0 0 0 0 0 0 0 0 0 0 0 0 0 0 0 0 0 0 0 0 0 0 0 0
0 0 0 0 0 1 1 0 0 1 0 1 1 1 2 2 1 0 0 0 0 0 0 0 0 0 0 0 0 0 0 0 0 0 0 0 0 0 0 0 0 0 0
0 0 0 0 0 0 0 0 0 0 1 1 1 0 1 0 0 0 0 0 0 0 0 0 0 0 0 0 0 0 0 0 0 0 0 0 0 0 0 0 0 0 0
0 0 0 0 0 0 0 0 0 0 1 0 0 0 0 0 0 0 0 0 0 0 0 0 0 0 0 0 0 0 0 0 0 0 0 0 0 0 0 0 0 0 0
0 0 0 0 0 0 0 0 0 0 0 0 0 0 0 0 0 0 0 0 0 0 0 0 0 0 0 0 0 0 0 0 0 -0 -0 0 0 0 0 0 0 0 0
0 0 0 0 0 0 0 0 0 0 0 0 0 0 0 0 0 0 0 0 0 0 0 0 0 0 0 0 0 0 0 0 0 0 0 0 0 0 0 0 0 0 0
0 0 0 0 0 0 0 0 0 0 0 0 0 0 0 0 0 0 0 0 0 0 0 0 0 0 0 0 0 0 0 0 0 0 0 0 0 0 0 0 0 0 0
0 0 0 0 -0 0 0 0 0 0 0 0 0 0 0 0 0 0 0 0 0 0 0 0 0 0 0 0 0 0 0 0 0 0 0 0 -0 -0 0 0 0 0 0
0 0 0 0 0 0 0 0 0 0 -0 0 0 0 0 0 0 0 0 0 0 0 0 0 0 0 0 0 0 0 0 0 0 0 0 0 -0 0 0 0 0 0 0
0 0 0 0 0 0 0 0 0 0 0 0 0 0 0 0 0 0 0 0 0 0 0 0 0 0 0 0 0 0 0 0 0 0 0 -0 -0 0 0 0 0 0 0
-0 0 0 0 0 0 0 0 0 0 0 0 0 0 0 0 0 0 0 0 0 0 0 0 0 0 0 0 0 0 0 0 0 0 -0 0 0 0 0 0 0 -0 0
0 0 0 0 0 0 0 0 0 0 0 0 0 0 0 0 0 0 0 0 0 0 0 0 0 0 0 0 0 0 0 0 0 0 0 0 -0 0 0 0 0 0 0
0 0 0 0 0 0 0 0 0 0 0 0 0 0 0 0 0 0 0 0 0 0 0 0 0 0 0 0 0 0 0 0 0 0 0 0 0 0 0 0 -0 0 0
Wind_Speed_500mb
49 47 45 45 45 48 44 47 47 42 39 37 37 37 38 40 40 41 39 29 36 31 31 30 27 28 22 15 16 20 22 23 24 13 20 25 28 27 25 20 22 13 19
42 45 44 42 43 45 48 44 44 46 49 44 44 37 40 41 45 45 41 37 37 36 35 33 30 27 28 27 21 24 23 25 27 28 20 24 28 36 35 26 13 10 25
38 39 40 41 44 46 46 49 46 49 51 45 48 48 45 43 43 44 43 42 40 39 36 33 31 29 30 20 24 23 25 28 29 26 31 24 16 26 27 25 26 17 17
32 31 34 39 40 42 44 46 49 53 53 56 54 53 53 49 47 46 45 49 47 44 40 35 31 30 28 25 28 29 25 26 26 31 25 24 28 29 25 23 20 21 19
19 17 20 26 35 41 45 48 49 56 57 59 60 59 59 56 52 56 55 53 49 49 45 43 39 37 32 26 19 22 25 30 26 27 31 29 32 31 33 27 23 20 26
11 13 7 18 36 40 48 59 58 61 60 64 64 64 65 59 57 65 61 56 56 53 54 52 43 44 38 31 26 34 34 38 37 30 33 37 39 37 31 31 29 28 25
70 72 34 17 40 45 44 49 53 58 58 61 68 69 70 72 67 67 71 60 54 58 56 54 56 51 48 38 31 29 43 49 46 45 41 34 41 45 34 40 32 29 26
28 29 43 28 61 34 33 43 51 51 55 60 63 69 70 74 75 73 75 77 68 63 67 67 70 58 49 35 31 27 35 53 57 55 54 39 34 43 50 42 37 42 27
23 18 24 22 9 14 20 25 34 41 48 51 59 63 68 68 68 71 72 81 84 89 82 82 75 60 56 62 61 88 67 56 50 57 58 44 42 46 45 34 33 31 31
20 18 13 7 7 6 7 12 17 26 37 37 48 55 59 62 66 73 73 76 97 102 89 93 85 75 88 84 79 79 68 55 54 47 53 54 52 55 44 42 34 36 32
19 16 15 13 10 9 14 21 28 23 30 43 49 51 53 59 69 65 68 76 85 87 94 97 93 83 78 79 63 62 57 51 50 51 40 53 57 56 50 50 43 38 31
16 17 16 17 17 15 21 25 31 34 29 35 44 49 54 55 62 56 58 54 65 70 78 90 89 69 75 72 66 69 64 56 54 53 36 42 45 45 46 56 49 51 25
22 21 20 19 20 21 24 30 25 33 29 30 33 46 51 44 49 55 54 53 62 65 73 82 68 55 45 60 55 66 66 60 49 39 41 45 46 45 40 43 50 50 47
22 21 19 20 24 28 34 31 33 31 33 38 37 39 41 46 49 52 49 55 58 70 84 69 60 36 47 65 63 65 61 60 56 50 50 46 46 45 48 46 42 38 43
20 18 19 24 30 34 38 40 40 39 39 36 31 30 30 34 36 49 44 47 49 52 75 69 54 49 68 73 72 73 70 60 54 56 60 49 48 51 49 49 47 40 43
20 22 25 27 34 40 45 50 50 46 41 49 48 43 42 51 45 38 45 38 36 43 54 63 57 61 64 68 77 79 80 73 68 68 57 55 54 53 52 49 49 49 44
17 17 23 29 38 43 45 53 56 53 49 45 56 51 46 49 49 68 62 55 56 51 55 61 57 58 65 68 70 80 97 93 86 83 77 61 58 62 57 56 54 46 49
19 25 29 34 37 40 43 46 49 59 53 46 39 45 43 43 47 49 60 62 56 63 66 67 62 67 75 80 74 86 86 89 87 81 76 75 64 67 66 61 56 54 50
22 28 34 39 44 48 49 51 49 54 53 44 40 43 50 40 41 45 46 55 61 66 72 73 77 77 76 78 76 83 84 84 88 81 75 83 76 68 62 64 57 53 48
25 30 32 36 42 45 47 51 53 53 55 51 43 42 37 48 42 46 52 57 61 60 68 75 77 84 88 85 82 80 84 81 88 95 93 81 78 67 71 64 55 51 56
21 24 29 33 39 43 47 48 54 51 52 58 47 40 41 57 43 43 45 50 61 68 65 70 82 83 85 84 83 84 91 95 98 100 82 83 69 69 72 67 59 62 56
25 30 34 38 41 44 48 50 56 57 62 46 52 33 44 52 46 52 44 42 49 60 63 63 73 91 98 93 94 95 102 102 95 89 82 80 67 76 67 63 62 63 56
34 41 45 48 48 47 50 53 55 58 60 57 52 42 48 48 50 48 45 40 39 46 59 66 67 77 87 100 106 104 107 88 82 89 84 84 74 69 67 68 62 63 58
47 51 53 52 52 52 53 54 54 53 55 58 58 48 42 41 41 37 49 49 44 42 48 56 63 69 74 80 100 110 94 78 70 68 79 71 64 74 67 61 60 58 47
55 59 61 61 60 55 48 46 53 54 53 56 54 44 39 44 45 51 48 51 44 40 45 51 58 59 56 61 72 76 73 68 78 75 76 63 74 72 72 63 64 59 59
57 59 61 67 65 61 57 50 46 45 48 48 52 38 45 43 41 47 53 49 45 46 42 42 50 56 56 52 60 60 62 68 72 72 70 72 65 62 56 57 60 48 46
Wind_Direction_500mb
211 214 214 215 217 221 213 220 217 214 222 209 224 213 213 213 215 221 208 225 237 224 220 231 251 246 238 241 234 219 220 223 232 255 198 180 193 206 230 211 249 262 291
214 212 218 214 213 216 215 216 219 217 221 225 220 219 219 222 222 223 226 222 232 232 232 236 249 252 251 228 221 226 224 224 220 231 225 236 229 221 226 220 212 243 255
215 216 215 220 216 215 220 214 219 227 225 227 228 228 227 224 227 230 228 230 226 236 231 238 246 249 252 238 240 233 239 227 231 221 227 218 229 206 217 208 211 215 225
207 213 220 221 223 222 222 226 217 228 234 235 239 239 237 230 227 225 230 229 221 229 230 230 240 246 250 252 232 234 224 232 233 226 228 224 210 212 209 209 218 208 227
176 203 227 237 233 230 224 227 230 222 234 238 237 240 242 235 226 228 227 229 228 221 226 231 234 243 248 248 241 251 231 237 233 234 232 225 213 208 208 212 222 219 221
168 178 184 269 253 236 236 225 228 235 232 234 238 237 239 232 235 234 238 233 237 231 224 226 218 235 240 236 234 223 228 226 232 242 236 231 227 219 213 213 220 219 228
229 244 251 297 266 253 242 241 237 235 234 236 239 241 240 244 234 236 241 231 230 231 231 220 225 230 234 230 226 222 231 236 233 222 237 232 229 221 217 212 214 221 219
193 229 238 231 268 262 254 243 244 240 240 241 242 243 244 244 245 239 236 240 234 232 227 229 230 235 244 245 242 248 252 241 239 225 225 231 226 227 212 227 215 223 210
146 160 185 198 246 267 266 271 259 248 242 243 246 249 246 247 244 244 240 236 231 233 231 238 243 248 248 240 261 282 260 239 232 234 222 225 225 229 218 207 212 203 204
163 158 169 190 225 260 316 311 289 264 269 255 249 248 251 253 250 245 243 239 234 232 235 248 248 263 245 246 275 268 244 232 213 228 225 220 224 227 226 197 204 197 200
179 189 201 214 250 289 316 322 321 304 274 260 255 252 252 254 252 251 249 244 247 241 246 243 240 246 239 260 257 235 244 228 211 211 220 219 224 225 220 204 195 200 217
215 223 237 260 276 274 295 313 315 314 297 270 260 257 261 257 251 254 254 251 253 252 247 246 245 243 271 264 242 241 236 210 204 211 214 208 219 212 210 204 196 201 201
231 240 241 250 262 262 276 297 300 299 298 277 267 266 271 271 264 252 251 245 244 248 248 234 249 269 255 237 225 214 202 201 192 205 200 205 214 207 210 213 219 211 209
222 232 247 262 272 275 276 280 283 290 294 299 290 274 271 270 259 254 249 245 241 245 244 246 261 258 223 211 207 203 197 207 192 203 197 214 213 211 211 212 217 224 222
223 233 248 267 271 273 271 276 273 280 278 279 282 268 254 252 256 270 270 256 244 239 235 243 242 226 217 221 212 197 197 200 202 206 204 210 219 215 215 214 216 219 223
231 260 265 269 273 271 273 277 273 268 269 280 282 270 252 254 257 255 260 263 255 245 236 240 236 224 209 205 194 191 196 197 203 203 205 219 218 215 212 212 215 219 221
247 265 278 281 286 284 280 275 274 273 266 276 279 279 272 259 260 254 253 256 262 255 240 240 223 210 206 199 197 202 203 201 199 202 203 215 218 210 209 213 218 211 222
262 278 290 290 286 286 284 282 280 273 265 271 277 288 286 271 262 255 249 248 246 242 238 230 215 215 203 205 205 212 210 204 202 208 213 216 214 210 214 214 216 217 222
269 279 283 284 283 282 280 279 276 268 267 261 265 276 288 284 270 259 250 244 240 241 234 232 232 216 215 216 219 212 214 211 206 212 212 213 210 211 214 217 218 223 224
267 275 282 285 286 284 281 273 270 268 268 257 259 269 271 278 275 265 255 248 243 245 239 235 232 226 225 223 221 219 209 206 208 211 213 215 210 217 220 220 218 219 230
268 276 282 282 282 282 282 274 268 265 267 266 255 259 267 282 282 270 260 258 249 245 242 240 233 219 224 222 211 212 208 207 212 212 212 216 205 221 215 216 220 227 236
278 280 282 282 283 279 276 278 268 268 268 273 264 260 275 280 279 278 270 261 260 256 251 247 240 233 222 218 216 212 216 216 218 215 219 223 215 218 215 217 224 230 237
282 281 280 278 275 274 277 272 268 264 265 271 276 267 272 272 277 279 273 274 271 260 254 251 246 242 240 231 226 223 222 220 218 212 219 216 215 209 215 224 231 229 230
284 280 277 274 271 270 268 267 266 264 259 260 266 271 262 263 264 255 269 282 283 269 255 254 249 246 247 244 234 231 226 225 216 217 222 214 212 219 217 223 227 229 239
281 277 273 270 266 265 270 270 261 262 261 261 265 263 267 267 260 273 262 272 275 269 261 257 252 246 244 246 242 236 222 208 206 215 216 216 216 212 220 219 225 229 241
280 273 270 266 261 260 265 265 265 261 255 259 262 262 270 270 265 265 269 270 264 257 259 258 250 246 235 231 225 215 206 214 216 215 215 213 211 217 219 226 225 230 240
Wind_Speed_850mb
49 47 45 45 45 48 44 47 47 42 39 37 37 37 38 40 40 41 39 29 36 31 31 30 27 28 22 15 16 20 22 23 24 13 20 25 28 27 25 20 22 13 19
42 45 44 42 43 45 48 44 44 46 49 44 44 37 40 41 45 45 41 37 37 36 35 33 30 27 28 27 21 24 23 25 27 28 20 24 28 36 35 26 13 10 25
38 39 40 41 44 46 46 49 46 49 51 45 48 48 45 43 43 44 43 42 40 39 36 33 31 29 30 20 24 23 25 28 29 26 31 24 16 26 27 25 26 17 17
32 31 34 39 40 42 44 46 49 53 53 56 54 53 53 49 47 46 45 49 47 44 40 35 31 30 28 25 28 29 25 26 26 31 25 24 28 29 25 23 20 21 19
19 17 20 26 35 41 45 48 49 56 57 59 60 59 59 56 52 56 55 53 49 49 45 43 39 37 32 26 19 22 25 30 26 27 31 29 32 31 33 27 23 20 26
11 13 7 18 36 40 48 59 58 61 60 64 64 64 65 59 57 65 61 56 56 53 54 52 43 44 38 31 26 34 34 38 37 30 33 37 39 37 31 31 29 28 25
70 72 34 17 40 45 44 49 53 58 58 61 68 69 70 72 67 67 71 60 54 58 56 54 56 51 48 38 31 29 43 49 46 45 41 34 41 45 34 40 32 29 26
28 29 43 28 61 34 33 43 51 51 55 60 63 69 70 74 75 73 75 77 68 63 67 67 70 58 49 35 31 27 35 53 57 55 54 39 34 43 50 42 37 42 27
23 18 24 22 9 14 20 25 34 41 48 51 59 63 68 68 68 71 72 81 84 89 82 82 75 60 56 62 61 88 67 56 50 57 58 44 42 46 45 34 33 31 31
20 18 13 7 7 6 7 12 17 26 37 37 48 55 59 62 66 73 73 76 97 102 89 93 85 75 88 84 79 79 68 55 54 47 53 54 52 55 44 42 34 36 32
19 16 15 13 10 9 14 21 28 23 30 43 49 51 53 59 69 65 68 76 85 87 94 97 93 83 78 79 63 62 57 51 50 51 40 53 57 56 50 50 43 38 31
16 17 16 17 17 15 21 25 31 34 29 35 44 49 54 55 62 56 58 54 65 70 78 90 89 69 75 72 66 69 64 56 54 53 36 42 45 45 46 56 49 51 25
22 21 20 19 20 21 24 30 25 33 29 30 33 46 51 44 49 55 54 53 62 65 73 82 68 55 45 60 55 66 66 60 49 39 41 45 46 45 40 43 50 50 47
22 21 19 20 24 28 34 31 33 31 33 38 37 39 41 46 49 52 49 55 58 70 84 69 60 36 47 65 63 65 61 60 56 50 50 46 46 45 48 46 42 38 43
20 18 19 24 30 34 38 40 40 39 39 36 31 30 30 34 36 49 44 47 49 52 75 69 54 49 68 73 72 73 70 60 54 56 60 49 48 51 49 49 47 40 43
20 22 25 27 34 40 45 50 50 46 41 49 48 43 42 51 45 38 45 38 36 43 54 63 57 61 64 68 77 79 80 73 68 68 57 55 54 53 52 49 49 49 44
17 17 23 29 38 43 45 53 56 53 49 45 56 51 46 49 49 68 62 55 56 51 55 61 57 58 65 68 70 80 97 93 86 83 77 61 58 62 57 56 54 46 49
19 25 29 34 37 40 43 46 49 59 53 46 39 45 43 43 47 49 60 62 56 63 66 67 62 67 75 80 74 86 86 89 87 81 76 75 64 67 66 61 56 54 50
22 28 34 39 44 48 49 51 49 54 53 44 40 43 50 40 41 45 46 55 61 66 72 73 77 77 76 78 76 83 84 84 88 81 75 83 76 68 62 64 57 53 48
25 30 32 36 42 45 47 51 53 53 55 51 43 42 37 48 42 46 52 57 61 60 68 75 77 84 88 85 82 80 84 81 88 95 93 81 78 67 71 64 55 51 56
21 24 29 33 39 43 47 48 54 51 52 58 47 40 41 57 43 43 45 50 61 68 65 70 82 83 85 84 83 84 91 95 98 100 82 83 69 69 72 67 59 62 56
25 30 34 38 41 44 48 50 56 57 62 46 52 33 44 52 46 52 44 42 49 60 63 63 73 91 98 93 94 95 102 102 95 89 82 80 67 76 67 63 62 63 56
34 41 45 48 48 47 50 53 55 58 60 57 52 42 48 48 50 48 45 40 39 46 59 66 67 77 87 100 106 104 107 88 82 89 84 84 74 69 67 68 62 63 58
47 51 53 52 52 52 53 54 54 53 55 58 58 48 42 41 41 37 49 49 44 42 48 56 63 69 74 80 100 110 94 78 70 68 79 71 64 74 67 61 60 58 47
55 59 61 61 60 55 48 46 53 54 53 56 54 44 39 44 45 51 48 51 44 40 45 51 58 59 56 61 72 76 73 68 78 75 76 63 74 72 72 63 64 59 59
57 59 61 67 65 61 57 50 46 45 48 48 52 38 45 43 41 47 53 49 45 46 42 42 50 56 56 52 60 60 62 68 72 72 70 72 65 62 56 57 60 48 46
Wind_Direction_850mb
211 214 214 215 217 221 213 220 217 214 222 209 224 213 213 213 215 221 208 225 237 224 220 231 251 246 238 241 234 219 220 223 232 255 198 180 193 206 230 211 249 262 291
214 212 218 214 213 216 215 216 219 217 221 225 220 219 219 222 222 223 226 222 232 232 232 236 249 252 251 228 221 226 224 224 220 231 225 236 229 221 226 220 212 243 255
215 216 215 220 216 215 220 214 219 227 225 227 228 228 227 224 227 230 228 230 226 236 231 238 246 249 252 238 240 233 239 227 231 221 227 218 229 206 217 208 211 215 225
207 213 220 221 223 222 222 226 217 228 234 235 239 239 237 230 227 225 230 229 221 229 230 230 240 246 250 252 232 234 224 232 233 226 228 224 210 212 209 209 218 208 227
176 203 227 237 233 230 224 227 230 222 234 238 237 240 242 235 226 228 227 229 228 221 226 231 234 243 248 248 241 251 231 237 233 234 232 225 213 208 208 212 222 219 221
168 178 184 269 253 236 236 225 228 235 232 234 238 237 239 232 235 234 238 233 237 231 224 226 218 235 240 236 234 223 228 226 232 242 236 231 227 219 213 213 220 219 228
229 244 251 297 266 253 242 241 237 235 234 236 239 241 240 244 234 236 241 231 230 231 231 220 225 230 234 230 226 222 231 236 233 222 237 232 229 221 217 212 214 221 219
193 229 238 231 268 262 254 243 244 240 240 241 242 243 244 244 245 239 236 240 234 232 227 229 230 235 244 245 242 248 252 241 239 225 225 231 226 227 212 227 215 223 210
146 160 185 198 246 267 266 271 259 248 242 243 246 249 246 247 244 244 240 236 231 233 231 238 243 248 248 240 261 282 260 239 232 234 222 225 225 229 218 207 212 203 204
163 158 169 190 225 260 316 311 289 264 269 255 249 248 251 253 250 245 243 239 234 232 235 248 248 263 245 246 275 268 244 232 213 228 225 220 224 227 226 197 204 197 200
179 189 201 214 250 289 316 322 321 304 274 260 255 252 252 254 252 251 249 244 247 241 246 243 240 246 239 260 257 235 244 228 211 211 220 219 224 225 220 204 195 200 217
215 223 237 260 276 274 295 313 315 314 297 270 260 257 261 257 251 254 254 251 253 252 247 246 245 243 271 264 242 241 236 210 204 211 214 208 219 212 210 204 196 201 201
231 240 241 250 262 262 276 297 300 299 298 277 267 266 271 271 264 252 251 245 244 248 248 234 249 269 255 237 225 214 202 201 192 205 200 205 214 207 210 213 219 211 209
222 232 247 262 272 275 276 280 283 290 294 299 290 274 271 270 259 254 249 245 241 245 244 246 261 258 223 211 207 203 197 207 192 203 197 214 213 211 211 212 217 224 222
223 233 248 267 271 273 271 276 273 280 278 279 282 268 254 252 256 270 270 256 244 239 235 243 242 226 217 221 212 197 197 200 202 206 204 210 219 215 215 214 216 219 223
231 260 265 269 273 271 273 277 273 268 269 280 282 270 252 254 257 255 260 263 255 245 236 240 236 224 209 205 194 191 196 197 203 203 205 219 218 215 212 212 215 219 221
247 265 278 281 286 284 280 275 274 273 266 276 279 279 272 259 260 254 253 256 262 255 240 240 223 210 206 199 197 202 203 201 199 202 203 215 218 210 209 213 218 211 222
262 278 290 290 286 286 284 282 280 273 265 271 277 288 286 271 262 255 249 248 246 242 238 230 215 215 203 205 205 212 210 204 202 208 213 216 214 210 214 214 216 217 222
269 279 283 284 283 282 280 279 276 268 267 261 265 276 288 284 270 259 250 244 240 241 234 232 232 216 215 216 219 212 214 211 206 212 212 213 210 211 214 217 218 223 224
267 275 282 285 286 284 281 273 270 268 268 257 259 269 271 278 275 265 255 248 243 245 239 235 232 226 225 223 221 219 209 206 208 211 213 215 210 217 220 220 218 219 230
268 276 282 282 282 282 282 274 268 265 267 266 255 259 267 282 282 270 260 258 249 245 242 240 233 219 224 222 211 212 208 207 212 212 212 216 205 221 215 216 220 227 236
278 280 282 282 283 279 276 278 268 268 268 273 264 260 275 280 279 278 270 261 260 256 251 247 240 233 222 218 216 212 216 216 218 215 219 223 215 218 215 217 224 230 237
282 281 280 278 275 274 277 272 268 264 265 271 276 267 272 272 277 279 273 274 271 260 254 251 246 242 240 231 226 223 222 220 218 212 219 216 215 209 215 224 231 229 230
284 280 277 274 271 270 268 267 266 264 259 260 266 271 262 263 264 255 269 282 283 269 255 254 249 246 247 244 234 231 226 225 216 217 222 214 212 219 217 223 227 229 239
281 277 273 270 266 265 270 270 261 262 261 261 265 263 267 267 260 273 262 272 275 269 261 257 252 246 244 246 242 236 222 208 206 215 216 216 216 212 220 219 225 229 241
280 273 270 266 261 260 265 265 265 261 255 259 262 262 270 270 265 265 269 270 264 257 259 258 250 246 235 231 225 215 206 214 216 215 215 213 211 217 219 226 225 230 240